Location: Unspecified
(48.7670°N, 0.0000°E)
Time: 04:12:58
(UTC+00:00)

Vanguard 2 Rocket - Pass Details

Date: 22 June 2019
Orbit: 554 x 3326 km, 32.9° (Epoch: 21 July)

Event Time Altitude Azimuth Distance (km) Brightness Sun altitude
Rises 01:50:47 0° 264° (W) 5,359 10.5 -13.8°
Reaches altitude 10° 01:54:14 10° 256° (WSW) 4,708 10.2 -13.6°
Maximum altitude 02:06:38 36° 196° (SSW) 3,931 9.6 -12.6°
Drops below altitude 10° 02:23:20 10° 140° (SE) 6,273 11.0 -11.2°
Sets 02:28:54 0° 133° (SE) 7,288 11.4 -10.7°
